GW6648 Weather Reports


time (UTC)temp
F
wind
direction
speed
knots
gust
knots
rain 1hr
in
rain 24hr
in
rain mn
in
humidity
%
barometer
mb
20260504151045 55 328 0.0 0.9 0.00 0.00 0.00 74
20260504150542 56 250 0.9 0.9 0.00 0.00 0.00 74
20260504141008 56 352 0.9 2.6 0.00 0.03 0.03 76
20260504140505 56 164 0.9 1.7 0.00 0.03 0.03 76
20260504130429 58 205 3.5 3.5 0.00 0.03 0.03 74
20260504110316 58 316 0.0 1.7 0.00 0.03 0.03 78
20260504100234 59 200 3.5 6.1 0.00 0.03 0.03 75
20260504081633 66 55 1.7 6.1 0.00 0.03 0.03 64
20260504081129 68 177 1.7 2.6 0.00 0.03 0.03 62
20260504080626 70 337 0.9 2.6 0.00 0.03 0.03 47
20260504080122 70 296 0.9 5.2 0.00 0.03 0.03 47
20260504050438 73 189 2.6 9.6 0.00 0.03 0.03 43
20260504045936 72 242 1.7 5.2 0.00 0.03 0.03 46
20260504045431 71 188 3.5 11.3 0.00 0.03 0.03 44
20260504044927 71 193 7.0 8.7 0.00 0.03 0.03 44
20260504044425 71 264 5.2 11.3 0.00 0.03 0.03 42
20260504043923 72 220 8.7 11.3 0.00 0.03 0.03 41
20260504043420 72 207 2.6 11.3 0.00 0.03 0.03 41
20260504042917 72 184 3.5 11.3 0.00 0.03 0.03 43
20260504042413 72 184 4.3 13.0 0.00 0.03 0.03 42
20260504041909 73 215 8.7 11.3 0.00 0.03 0.03 41
20260504041406 73 260 4.3 7.0 0.00 0.03 0.03 44
20260504040901 73 192 4.3 7.0 0.00 0.03 0.03 44
20260504040359 73 203 7.8 9.6 0.00 0.03 0.03 43
20260504035855 74 176 6.1 9.6 0.00 0.03 0.03 43
20260504035353 75 234 1.7 12.2 0.00 0.03 0.03 45
20260504034850 76 202 3.5 6.1 0.00 0.03 0.03 44
20260504034347 74 325 1.7 6.1 0.00 0.03 0.03 46
20260504033844 75 220 3.5 5.2 0.00 0.03 0.03 43
20260504033342 74 168 5.2 9.6 0.00 0.03 0.03 47
20260504032838 73 165 1.7 7.0 0.00 0.03 0.03 49
20260504032336 72 187 7.0 8.7 0.00 0.03 0.03 48
20260504031832 72 176 10.4 13.0 0.00 0.03 0.03 48
20260504031330 71 222 5.2 13.9 0.00 0.03 0.03 50
20260504030826 71 196 9.6 13.0 0.00 0.03 0.03 50
20260504030323 72 187 9.6 11.3 0.00 0.03 0.03 49
20260504025819 72 182 5.2 9.6 0.00 0.03 0.03 51
20260504025317 71 209 4.3 8.7 0.00 0.03 0.03 54
20260504024813 72 187 10.4 14.8 0.00 0.03 0.03 52
20260504024309 73 284 2.6 8.7 0.00 0.03 0.03 53
20260504023806 73 170 5.2 15.6 0.00 0.03 0.03 52
20260504023303 74 187 6.1 14.8 0.00 0.03 0.03 51
20260504022759 73 242 3.5 12.2 0.00 0.03 0.03 53
20260504022255 73 220 5.2 18.2 0.00 0.03 0.03 54
20260504021752 74 185 9.6 14.8 0.00 0.03 0.03 51
20260504021250 74 217 7.8 14.8 0.00 0.03 0.03 51
20260504020746 74 225 6.1 7.8 0.00 0.03 0.03 53
20260504020243 73 187 2.6 7.8 0.00 0.03 0.03 54
20260504015739 74 213 7.8 9.6 0.00 0.03 0.03 53
20260504015236 73 202 4.3 7.8 0.00 0.03 0.03 53
20260504014731 74 253 4.3 9.6 0.00 0.03 0.03 53
20260504014228 73 253 5.2 9.6 0.00 0.03 0.03 54
20260504013726 73 228 5.2 11.3 0.00 0.03 0.03 53
20260504013223 72 203 4.3 7.8 0.00 0.03 0.03 55
20260504012720 72 208 4.3 12.2 0.00 0.03 0.03 57
20260504012218 73 177 7.8 14.8 0.00 0.03 0.03 54
20260504011714 72 209 8.7 12.2 0.00 0.03 0.03 54
20260504011211 73 248 2.6 8.7 0.00 0.03 0.03 54
20260504010707 72 187 6.1 12.2 0.00 0.03 0.03 54
20260504010203 71 193 4.3 14.8 0.00 0.03 0.03 57
20260504005659 70 229 4.3 9.6 0.00 0.03 0.03 57
20260504005157 70 223 2.6 14.8 0.00 0.03 0.03 59
20260504004654 71 235 5.2 13.9 0.00 0.03 0.03 56
20260504004151 71 161 6.1 11.3 0.00 0.03 0.03 57
20260504003648 71 190 4.3 12.2 0.00 0.03 0.03 58
20260504003144 70 221 6.1 9.6 0.00 0.03 0.03 58
20260504002641 70 201 8.7 9.6 0.00 0.03 0.03 60
20260504002139 70 250 11.3 14.8 0.00 0.03 0.03 60
20260504001637 70 184 8.7 16.5 0.00 0.03 0.03 60
20260504001132 70 165 7.8 14.8 0.00 0.03 0.03 62
20260504000630 70 198 6.1 12.2 0.00 0.03 0.03 63
20260504000127 70 196 8.7 11.3 0.00 0.03 0.03 63
20260503235625 70 211 3.5 7.0 0.00 0.03 0.03 65
20260503235121 69 204 7.0 11.3 0.00 0.03 0.03 63
20260503234620 69 205 6.1 11.3 0.00 0.03 0.03 64
20260503234118 68 199 3.5 11.3 0.00 0.03 0.03 65
20260503233614 68 200 7.0 9.6 0.00 0.03 0.03 66
20260503233110 68 214 7.8 11.3 0.00 0.03 0.03 67
20260503232607 67 180 6.1 7.8 0.00 0.03 0.03 69
20260503232104 67 213 5.2 8.7 0.00 0.03 0.03 70
20260503231602 67 206 3.5 8.7 0.00 0.03 0.03 70
20260503231058 66 189 7.0 11.3 0.00 0.03 0.03 71
20260503230555 66 204 6.1 7.8 0.00 0.03 0.03 72
20260503230053 66 192 5.2 7.8 0.00 0.03 0.03 73
20260503225549 66 193 7.0 8.7 0.00 0.03 0.03 74
20260503225044 66 199 0.9 5.2 0.00 0.03 0.03 77
20260503224542 66 203 2.6 5.2 0.00 0.03 0.03 78
20260503224040 66 204 2.6 3.5 0.00 0.03 0.03 79
20260503223538 66 186 0.0 5.2 0.00 0.03 0.03 80
20260503223033 66 193 2.6 2.6 0.00 0.03 0.03 81
20260503222532 66 190 0.0 1.7 0.00 0.03 0.03 81
20260503222029 65 194 0.9 2.6 0.00 0.03 0.03 82
20260503221527 65 172 1.7 1.7 0.00 0.03 0.03 83
20260503221024 65 192 0.9 1.7 0.00 0.03 0.03 83
20260503220520 65 201 1.7 3.5 0.00 0.03 0.03 83
20260503220017 65 184 1.7 3.5 0.00 0.03 0.03 84
20260503215514 65 188 1.7 1.7 0.00 0.03 0.03 85
20260503215012 65 199 1.7 5.2 0.00 0.03 0.03 85
20260503214510 64 180 4.3 6.1 0.00 0.03 0.03 86
20260503214006 64 183 1.7 2.6 0.00 0.03 0.03 87
20260503213505 64 173 0.0 0.9 0.00 0.03 0.03 87
20260503213001 64 91 0.0 0.9 0.00 0.03 0.03 87
20260503212458 64 184 0.0 0.9 0.00 0.03 0.03 87
20260503211955 64 183 1.7 2.6 0.00 0.03 0.03 88
20260503211452 64 107 0.0 0.9 0.00 0.03 0.03 88
20260503210948 64 188 0.9 1.7 0.00 0.03 0.03 89
20260503210445 63 162 0.9 1.7 0.00 0.03 0.03 89
20260503205945 64 88 0.0 1.7 0.00 0.03 0.03 89
20260503205442 64 188 0.9 0.9 0.00 0.03 0.03 89
20260503204938 64 97 0.9 0.9 0.00 0.03 0.03 89
20260503204436 64 179 0.0 1.7 0.00 0.03 0.03 89
20260503203933 64 99 0.0 0.9 0.00 0.03 0.03 89
20260503203430 64 178 0.9 0.9 0.00 0.03 0.03 89
20260503202927 64 189 1.7 2.6 0.00 0.03 0.03 89
20260503202426 64 125 0.0 2.6 0.05 0.03 0.03 89
20260503201924 65 191 0.9 2.6 0.05 0.03 0.03 89
20260503201420 65 201 0.9 3.5 0.00 0.02 0.02 88
20260503200918 65 193 1.7 6.1 0.00 0.02 0.02 89
20260503200414 65 201 1.7 7.0 0.00 0.02 0.02 90
20260503195911 65 72 1.7 2.6 0.00 0.02 0.02 92
20260503195408 65 186 0.9 2.6 0.00 0.02 0.02 93
20260503194905 66 181 1.7 1.7 0.00 0.02 0.02 93
20260503194401 66 159 1.7 3.5 0.00 0.02 0.02 94
20260503193857 66 163 1.7 2.6 0.00 0.02 0.02 95
20260503193353 66 160 2.6 5.2 0.00 0.02 0.02 95
20260503192849 66 157 0.0 1.7 0.00 0.02 0.02 96
20260503192344 66 160 0.9 3.5 0.00 0.02 0.02 96
20260503191841 66 155 0.0 1.7 0.00 0.02 0.02 96
20260503191338 66 154 0.9 0.9 0.00 0.02 0.02 96
20260503190835 66 160 0.0 0.9 0.00 0.02 0.02 96
20260503190332 66 157 0.0 0.0 0.00 0.02 0.02 96
20260503185829 66 157 0.0 0.9 0.00 0.02 0.02 96
20260503185325 66 156 0.0 0.0 0.00 0.02 0.02 96
20260503184825 66 157 0.0 0.0 0.00 0.02 0.02 96
20260503184322 66 157 0.0 0.0 0.00 0.02 0.02 95
20260503183817 66 153 1.7 2.6 0.00 0.02 0.02 95
20260503183315 66 155 0.0 0.0 0.00 0.02 0.02 95
20260503182812 66 155 0.0 0.0 0.00 0.02 0.02 95
20260503182311 66 155 0.0 0.0 0.00 0.02 0.02 95
20260503181808 65 155 0.0 0.9 0.00 0.02 0.02 95
20260503181305 66 156 0.0 0.0 0.00 0.02 0.02 95
20260503180801 66 158 0.0 0.0 0.00 0.02 0.02 95
20260503180259 66 156 0.9 0.9 0.00 0.02 0.02 95
20260503175755 66 202 0.9 2.6 0.00 0.02 0.02 95
20260503175254 66 225 0.9 2.6 0.00 0.02 0.02 95
20260503174754 66 180 1.7 1.7 0.00 0.02 0.02 94
20260503174253 65 190 2.6 2.6 0.00 0.02 0.02 94
20260503173748 66 186 1.7 2.6 0.07 0.02 0.02 94
20260503173244 65 212 0.9 1.7 0.07 0.02 0.02 94
20260503172741 65 202 0.9 0.9 0.00 0.01 0.01 94
20260503172238 65 217 0.9 2.6 0.00 0.01 0.01 93
20260503171735 65 193 1.7 3.5 0.00 0.01 0.01 93
20260503171232 65 186 1.7 2.6 0.00 0.01 0.01 93
20260503170729 66 226 1.7 2.6 0.00 0.01 0.01 92
20260503170226 66 341 0.0 2.6 0.00 0.01 0.01 92
20260503160147 72 175 8.7 11.3 0.00 0.00 0.00 87